Regional Weather Roundup
Issued by NWS

Home | Current Version | Previous Version | Graphics & Text | Print | Product List | Glossary On
Versions: 1 2 3 4 5 6 7 8 9 10 11 12 13 14 15 16 17 18 19 20 21 22 23 24 25 26 27 28 29 30 31 32 33 34 35 36 37 38 39 40 41 42 43 44 45 46 47 48 49 50
434
ASUS45 KBOU 290007
RWRCO

WEATHER ROUNDUP FOR COLORADO
NATIONAL WEATHER SERVICE DENVER/BOULDER CO
600 PM MDT SUN MAY 28 2017

NOTE: "FAIR" INDICATES FEW OR NO CLOUDS BELOW 12000 FEET WITH NO
SIGNIFICANT WEATHER AND/OR OBSTRUCTIONS TO VISIBILITY.

COZ001>005-013-030-031-290100-
...NORTHWEST COLORADO...

CITY           SKY/WX    TMP DP  RH WIND       PRES   REMARKS
CRAIG          FAIR      67  22  18 CALM      30.24F
HAYDEN         FAIR      64  28  25 N8        30.26S
MEEKER         FAIR      70  25  18 CALM      30.23F
RABBIT EARS PA NOT AVBL
STEAMBOAT SPGS NOT AVBL
WALDEN         NOT AVBL
$$

COZ006>008-011-290100-
...WEST CENTRAL VALLEYS...

CITY           SKY/WX    TMP DP  RH WIND       PRES   REMARKS
GRAND JUNCTION FAIR      78  11   8 W8        30.12F
MONTROSE       FAIR      73  11   9 N9        30.18F
EAGLE          SUNNY     70  18  13 SW5       30.23F
RIFLE          FAIR      75  17  11 VRB5      30.15F
DELTA          FAIR      79   6   6 SW6       30.13F
NUCLA          FAIR      73  10   9 N6        30.21F
$$

COZ017>023-064>068-290100-
...SOUTHWEST COLORADO...

CITY           SKY/WX    TMP DP  RH WIND       PRES   REMARKS
DURANGO        FAIR      71   5   7 W9        30.20F
CORTEZ         FAIR      76  11   8 W9        30.17F
PAGOSA SPRINGS FAIR      68   4   8 W5G17     30.26F
TELLURIDE      FAIR      61  12  14 W14G20    30.36S
WOLF CREEK PAS NOT AVBL
$$

COZ009-010-012-014-032>034-037-058>063-290100-
...CENTRAL COLORADO...

CITY           SKY/WX    TMP DP  RH WIND       PRES   REMARKS
ASPEN          FAIR      64  19  17 N8        30.26F
BUENA VISTA    FAIR      63  12  13 W17G25    30.26F
COPPER MTN     NOT AVBL
BERTHOUD PASS  NOT AVBL
COTTONWOOD PAS NOT AVBL
GUNNISON       FAIR      65  20  17 NW12G20   30.25F
KREMMLING      NOT AVBL
LEADVILLE      FAIR      54  17  23 NW10G18   30.37S
SALIDA         FAIR      69  15  13 SE5       30.30F
SUNLIGHT       NOT AVBL
WILKERSON PASS NOT AVBL
$$

COZ069>075-290100-
...SAN LUIS VALLEY/SANGRE DE CRISTO MOUNTAINS...

CITY           SKY/WX    TMP DP  RH WIND       PRES   REMARKS
ALAMOSA        FAIR      66  15  14 VRB3      30.23F
DEL NORTE      NOT AVBL
LA VETA PASS   NOT AVBL
SAGUACHE       NOT AVBL
$$

COZ035-036-038>040-290100-
...NORTHERN COLORADO FRONT RANGE...

CITY           SKY/WX    TMP DP  RH WIND       PRES   REMARKS
DENVER INTL AP FAIR      70  33  25 N9        30.19F
DMNS CITY PARK   N/A     70  31  23 NE3G16    30.19S
AURORA         MOSUNNY   70  34  26 NE3       30.21F
FRONT RANGE AP MOSUNNY   70  34  26 N6        30.21F
ERIE MUNI ARPT NOT AVBL
BOULDER MUN AP NOT AVBL
CENTENNIAL     PTSUNNY   65  32  29 NE3       30.21F
BROOMFIELD     PTSUNNY   70  36  28 N7        30.21F
FORT COLLINS   FAIR      70  35  27 N8        30.18S
LONGMONT       NOT AVBL
$$

COZ041-046-047-076>085-087-088-290100-
...PIKES PEAK/PALMER DIVIDE AND SOUTHERN FOOTHILLS...

CITY           SKY/WX    TMP DP  RH WIND       PRES   REMARKS
COLO. SPRINGS  FAIR      66  31  27 S9        30.24F
A. F. ACADEMY  FAIR      65  30  27 S13       30.24F
SCHRIEVER AFB  PTSUNNY   65  29  25 S12       30.25F
CHEYENNE MTN   FAIR      59  29  31 S5        30.22F
ELLICOTT       FAIR     N/A N/A N/A SE6       30.23F
FALCON         PTSUNNY   62  29  28 E8        30.28F
FORT CARSON    SUNNY     67  30  24 S9        30.21F
LIMON          FAIR      67  34  29 N6        30.20F
MONUMENT HILL  NOT AVBL
CANON CITY     NOT AVBL
WALSENBURG     FAIR      68  34  28 E5        30.23F
TRINIDAD       FAIR      68  30  24 E9        30.23F
$$

COZ042>045-048>051-090-091-290100-
...NORTHEAST COLORADO...

CITY           SKY/WX    TMP DP  RH WIND       PRES   REMARKS
GREELEY ARPT   FAIR      69  38  32 N18       30.17S
AKRON          PTSUNNY   70  36  28 NW7       30.15F
BURLINGTON     FAIR      73  39  29 W10       30.14F
WRAY           FAIR      72  34  25 NW8       30.09F
YUMA           NOT AVBL
STERLING       NOT AVBL
HOLYOKE        NOT AVBL
FORT MORGAN    FAIR      73  32  21 N7        30.15S
$$

COZ086-089-092>099-290100-
...SOUTHEAST COLORADO...

CITY           SKY/WX    TMP DP  RH WIND       PRES   REMARKS
PUEBLO         FAIR      72  33  24 SE13      30.16F
LA JUNTA       FAIR      73  34  23 CALM      30.15F
LAMAR          FAIR      76  35  22 CALM      30.11F
SPRINGFIELD      N/A     70  37  29 N7        30.17F
$$




USA.gov is the U.S. government's official web portal to all federal, state and local government web resources and services.